sat.trackr.live / text

‹ back to catalog

STARLINK-34547

NORAD 64777 · 2025-147Y

PAYLOAD ACTIVE UNKNOWN

§ Identity

Operator
Country
US
Launch date
2025-07-08
Launch site
AFETR
Launch vehicle
Mass (kg)
RCS (m²)

Purposes: comms

External: N2YO · Heavens-Above · Gunter

§ Orbital elements

Epoch: 2026-05-24T18:40:41.168928Z

Period
93.85 min
Inclination
53.1573°
Eccentricity
0.0000957
Mean motion
15.34398482 rev/d
Perigee alt
462.1 km
Apogee alt
463.4 km
Semi-major
6,840.8 km
B*
3.1116e-4
RAAN
248.4463°
Arg perigee
67.8285°
Mean anomaly
292.2819°
Rev number
5,035

§ Raw data

STARLINK-345471 64777U 25147Y   26144.77825427  .00010151  00000+0  31116-3 0  99912 64777  53.1573 248.4463 0000957  67.8285 292.2819 15.34398482 50358

JSON: /api/v1/satellites/64777 · /tle

For live sub-satellite position, see the globe view (requires WebGL).

§ Visibility from observer

Set your observer location to see the next 7 days of passes ≥ 10°. The values pass through the URL so the page stays shareable.

No JS? Fill the form by hand. The geolocation button needs JavaScript.